Year,Month,Day,Hour,Minute,Value (Times are PST for insolation in W/m^2)
2013,08,15,00,00,0.00
2013,08,15,00,01,0.00
2013,08,15,00,02,0.00
2013,08,15,00,03,0.00
2013,08,15,00,04,0.00
2013,08,15,00,05,0.00
2013,08,15,00,06,0.00
2013,08,15,00,07,0.00
2013,08,15,00,08,0.00
2013,08,15,00,09,0.00
2013,08,15,00,10,0.00
2013,08,15,00,11,0.00
2013,08,15,00,12,0.00
2013,08,15,00,13,0.00
2013,08,15,00,14,0.00
2013,08,15,00,15,0.00
2013,08,15,00,16,0.00
2013,08,15,00,17,0.00
2013,08,15,00,18,0.00
2013,08,15,00,19,0.00
2013,08,15,00,20,0.00
2013,08,15,00,21,0.00
2013,08,15,00,22,0.00
2013,08,15,00,23,0.00
2013,08,15,00,24,0.00
2013,08,15,00,25,0.00
2013,08,15,00,26,0.00
2013,08,15,00,27,0.00
2013,08,15,00,28,0.00
2013,08,15,00,29,0.00
2013,08,15,00,30,0.00
2013,08,15,00,31,0.00
2013,08,15,00,32,0.00
2013,08,15,00,33,0.00
2013,08,15,00,34,0.00
2013,08,15,00,35,0.00
2013,08,15,00,36,0.00
2013,08,15,00,37,0.00
2013,08,15,00,38,0.00
2013,08,15,00,39,0.00
2013,08,15,00,40,0.00
2013,08,15,00,41,0.00
2013,08,15,00,42,0.00
2013,08,15,00,43,0.00
2013,08,15,00,44,0.00
2013,08,15,00,45,0.00
2013,08,15,00,46,0.00
2013,08,15,00,47,0.00
2013,08,15,00,48,0.00
2013,08,15,00,49,0.00
2013,08,15,00,50,0.00
2013,08,15,00,51,0.00
2013,08,15,00,52,0.00
2013,08,15,00,53,0.00
2013,08,15,00,54,0.00
2013,08,15,00,55,0.00
2013,08,15,00,56,0.00
2013,08,15,00,57,0.00
2013,08,15,00,58,0.00
2013,08,15,00,59,0.00
2013,08,15,01,00,0.00
2013,08,15,01,01,0.00
2013,08,15,01,02,0.00
2013,08,15,01,03,0.00
2013,08,15,01,04,0.00
2013,08,15,01,05,0.00
2013,08,15,01,06,0.00
2013,08,15,01,07,0.00
2013,08,15,01,08,0.00
2013,08,15,01,09,0.00
2013,08,15,01,10,0.00
2013,08,15,01,11,0.00
2013,08,15,01,12,0.00
2013,08,15,01,13,0.00
2013,08,15,01,14,0.00
2013,08,15,01,15,0.00
2013,08,15,01,16,0.00
2013,08,15,01,17,0.00
2013,08,15,01,18,0.00
2013,08,15,01,19,0.00
2013,08,15,01,20,0.00
2013,08,15,01,21,0.00
2013,08,15,01,22,0.00
2013,08,15,01,23,0.00
2013,08,15,01,24,0.00
2013,08,15,01,25,0.00
2013,08,15,01,26,0.00
2013,08,15,01,27,0.00
2013,08,15,01,28,0.00
2013,08,15,01,29,0.00
2013,08,15,01,30,0.00
2013,08,15,01,31,0.00
2013,08,15,01,32,0.00
2013,08,15,01,33,0.00
2013,08,15,01,34,0.00
2013,08,15,01,35,0.00
2013,08,15,01,36,0.00
2013,08,15,01,37,0.00
2013,08,15,01,38,0.00
2013,08,15,01,39,0.00
2013,08,15,01,40,0.00
2013,08,15,01,41,0.00
2013,08,15,01,42,0.00
2013,08,15,01,43,0.00
2013,08,15,01,44,0.00
2013,08,15,01,45,0.00
2013,08,15,01,46,0.00
2013,08,15,01,47,0.00
2013,08,15,01,48,0.00
2013,08,15,01,49,0.00
2013,08,15,01,50,0.00
2013,08,15,01,51,0.00
2013,08,15,01,52,0.00
2013,08,15,01,53,0.00
2013,08,15,01,54,0.00
2013,08,15,01,55,0.00
2013,08,15,01,56,0.00
2013,08,15,01,57,0.00
2013,08,15,01,58,0.00
2013,08,15,01,59,0.00
2013,08,15,02,00,0.00
2013,08,15,02,01,0.00
2013,08,15,02,02,0.00
2013,08,15,02,03,0.00
2013,08,15,02,04,0.00
2013,08,15,02,05,0.00
2013,08,15,02,06,0.00
2013,08,15,02,07,0.00
2013,08,15,02,08,0.00
2013,08,15,02,09,0.00
2013,08,15,02,10,0.00
2013,08,15,02,11,0.00
2013,08,15,02,12,0.00
2013,08,15,02,13,0.00
2013,08,15,02,14,0.00
2013,08,15,02,15,0.00
2013,08,15,02,16,0.00
2013,08,15,02,17,0.00
2013,08,15,02,18,0.00
2013,08,15,02,19,0.00
2013,08,15,02,20,0.00
2013,08,15,02,21,0.00
2013,08,15,02,22,0.00
2013,08,15,02,23,0.00
2013,08,15,02,24,0.00
2013,08,15,02,25,0.00
2013,08,15,02,26,0.00
2013,08,15,02,27,0.00
2013,08,15,02,28,0.00
2013,08,15,02,29,0.00
2013,08,15,02,30,0.00
2013,08,15,02,31,0.00
2013,08,15,02,32,0.00
2013,08,15,02,33,0.00
2013,08,15,02,34,0.00
2013,08,15,02,35,0.00
2013,08,15,02,36,0.00
2013,08,15,02,37,0.00
2013,08,15,02,38,0.00
2013,08,15,02,39,0.00
2013,08,15,02,40,0.00
2013,08,15,02,41,0.00
2013,08,15,02,42,0.00
2013,08,15,02,43,0.00
2013,08,15,02,44,0.00
2013,08,15,02,45,0.00
2013,08,15,02,46,0.00
2013,08,15,02,47,0.00
2013,08,15,02,48,0.00
2013,08,15,02,49,0.00
2013,08,15,02,50,0.00
2013,08,15,02,51,0.00
2013,08,15,02,52,0.00
2013,08,15,02,53,0.00
2013,08,15,02,54,0.00
2013,08,15,02,55,0.00
2013,08,15,02,56,0.00
2013,08,15,02,57,0.00
2013,08,15,02,58,0.00
2013,08,15,02,59,0.00
2013,08,15,03,00,0.00
2013,08,15,03,01,0.00
2013,08,15,03,02,0.00
2013,08,15,03,03,0.00
2013,08,15,03,04,0.00
2013,08,15,03,05,0.00
2013,08,15,03,06,0.00
2013,08,15,03,07,0.00
2013,08,15,03,08,0.00
2013,08,15,03,09,0.00
2013,08,15,03,10,0.00
2013,08,15,03,11,0.00
2013,08,15,03,12,0.00
2013,08,15,03,13,0.00
2013,08,15,03,14,0.00
2013,08,15,03,15,0.00
2013,08,15,03,16,0.00
2013,08,15,03,17,0.00
2013,08,15,03,18,0.00
2013,08,15,03,19,0.00
2013,08,15,03,20,0.00
2013,08,15,03,21,0.00
2013,08,15,03,22,0.00
2013,08,15,03,23,0.00
2013,08,15,03,24,0.00
2013,08,15,03,25,0.00
2013,08,15,03,26,0.00
2013,08,15,03,27,0.00
2013,08,15,03,28,0.00
2013,08,15,03,29,0.00
2013,08,15,03,30,0.00
2013,08,15,03,31,0.00
2013,08,15,03,32,0.00
2013,08,15,03,33,0.00
2013,08,15,03,34,0.00
2013,08,15,03,35,0.00
2013,08,15,03,36,0.00
2013,08,15,03,37,0.00
2013,08,15,03,38,0.00
2013,08,15,03,39,0.00
2013,08,15,03,40,0.00
2013,08,15,03,41,0.00
2013,08,15,03,42,0.00
2013,08,15,03,43,0.00
2013,08,15,03,44,0.00
2013,08,15,03,45,0.00
2013,08,15,03,46,0.00
2013,08,15,03,47,0.00
2013,08,15,03,48,0.00
2013,08,15,03,49,0.00
2013,08,15,03,50,0.00
2013,08,15,03,51,0.00
2013,08,15,03,52,0.00
2013,08,15,03,53,0.00
2013,08,15,03,54,0.00
2013,08,15,03,55,0.00
2013,08,15,03,56,0.00
2013,08,15,03,57,0.00
2013,08,15,03,58,0.00
2013,08,15,03,59,0.00
2013,08,15,04,00,0.00
2013,08,15,04,01,0.00
2013,08,15,04,02,0.00
2013,08,15,04,03,0.00
2013,08,15,04,04,0.00
2013,08,15,04,05,0.00
2013,08,15,04,06,0.00
2013,08,15,04,07,0.00
2013,08,15,04,08,0.00
2013,08,15,04,09,0.00
2013,08,15,04,10,0.00
2013,08,15,04,11,0.00
2013,08,15,04,12,0.00
2013,08,15,04,13,0.00
2013,08,15,04,14,0.00
2013,08,15,04,15,0.00
2013,08,15,04,16,0.00
2013,08,15,04,17,0.00
2013,08,15,04,18,0.00
2013,08,15,04,19,0.00
2013,08,15,04,20,0.00
2013,08,15,04,21,0.00
2013,08,15,04,22,0.00
2013,08,15,04,23,0.00
2013,08,15,04,24,0.00
2013,08,15,04,25,0.00
2013,08,15,04,26,0.00
2013,08,15,04,27,0.00
2013,08,15,04,28,0.00
2013,08,15,04,29,0.00
2013,08,15,04,30,0.00
2013,08,15,04,31,0.00
2013,08,15,04,32,0.00
2013,08,15,04,33,0.00
2013,08,15,04,34,0.00
2013,08,15,04,35,0.00
2013,08,15,04,36,0.00
2013,08,15,04,37,0.00
2013,08,15,04,38,0.00
2013,08,15,04,39,0.00
2013,08,15,04,40,0.00
2013,08,15,04,41,0.00
2013,08,15,04,42,0.00
2013,08,15,04,43,0.00
2013,08,15,04,44,0.00
2013,08,15,04,45,0.00
2013,08,15,04,46,0.00
2013,08,15,04,47,0.00
2013,08,15,04,48,0.00
2013,08,15,04,49,0.00
2013,08,15,04,50,0.00
2013,08,15,04,51,0.00
2013,08,15,04,52,0.00
2013,08,15,04,53,0.00
2013,08,15,04,54,0.00
2013,08,15,04,55,0.00
2013,08,15,04,56,0.00
2013,08,15,04,57,0.00
2013,08,15,04,58,0.00
2013,08,15,04,59,0.00
2013,08,15,05,00,0.00
2013,08,15,05,01,0.00
2013,08,15,05,02,0.00
2013,08,15,05,03,0.00
2013,08,15,05,04,0.00
2013,08,15,05,05,0.00
2013,08,15,05,06,0.00
2013,08,15,05,07,0.00
2013,08,15,05,08,0.00
2013,08,15,05,09,0.00
2013,08,15,05,10,0.00
2013,08,15,05,11,0.00
2013,08,15,05,12,0.00
2013,08,15,05,13,0.00
2013,08,15,05,14,0.00
2013,08,15,05,15,0.00
2013,08,15,05,16,0.00
2013,08,15,05,17,0.00
2013,08,15,05,18,0.00
2013,08,15,05,19,0.00
2013,08,15,05,20,0.00
2013,08,15,05,21,0.00
2013,08,15,05,22,0.00
2013,08,15,05,23,0.00
2013,08,15,05,24,0.00
2013,08,15,05,25,0.00
2013,08,15,05,26,0.00
2013,08,15,05,27,0.00
2013,08,15,05,28,0.00
2013,08,15,05,29,0.00
2013,08,15,05,30,0.00
2013,08,15,05,31,0.00
2013,08,15,05,32,0.00
2013,08,15,05,33,0.00
2013,08,15,05,34,0.00
2013,08,15,05,35,0.00
2013,08,15,05,36,0.00
2013,08,15,05,37,0.00
2013,08,15,05,38,0.00
2013,08,15,05,39,0.00
2013,08,15,05,40,0.00
2013,08,15,05,41,0.00
2013,08,15,05,42,0.00
2013,08,15,05,43,0.00
2013,08,15,05,44,0.00
2013,08,15,05,45,0.00
2013,08,15,05,46,0.00
2013,08,15,05,47,0.00
2013,08,15,05,48,0.00
2013,08,15,05,49,0.00
2013,08,15,05,50,0.00
2013,08,15,05,51,0.00
2013,08,15,05,52,0.00
2013,08,15,05,53,0.00
2013,08,15,05,54,0.00
2013,08,15,05,55,0.00
2013,08,15,05,56,0.00
2013,08,15,05,57,0.00
2013,08,15,05,58,0.00
2013,08,15,05,59,0.00
2013,08,15,06,00,0.00
2013,08,15,06,01,0.00
2013,08,15,06,02,0.00
2013,08,15,06,03,0.00
2013,08,15,06,04,0.00
2013,08,15,06,05,0.00
2013,08,15,06,06,0.00
2013,08,15,06,07,0.00
2013,08,15,06,08,0.00
2013,08,15,06,09,0.00
2013,08,15,06,10,0.00
2013,08,15,06,11,0.00
2013,08,15,06,12,0.00
2013,08,15,06,13,0.00
2013,08,15,06,14,0.00
2013,08,15,06,15,4.20
2013,08,15,06,16,5.00
2013,08,15,06,17,5.30
2013,08,15,06,18,7.00
2013,08,15,06,19,7.00
2013,08,15,06,20,7.90
2013,08,15,06,21,9.00
2013,08,15,06,22,10.40
2013,08,15,06,23,11.00
2013,08,15,06,24,11.90
2013,08,15,06,25,12.00
2013,08,15,06,26,12.00
2013,08,15,06,27,12.00
2013,08,15,06,28,12.00
2013,08,15,06,29,12.00
2013,08,15,06,30,12.00
2013,08,15,06,31,12.00
2013,08,15,06,32,12.00
2013,08,15,06,33,12.00
2013,08,15,06,34,12.00
2013,08,15,06,35,12.50
2013,08,15,06,36,14.00
2013,08,15,06,37,14.00
2013,08,15,06,38,15.10
2013,08,15,06,39,16.00
2013,08,15,06,40,16.00
2013,08,15,06,41,17.80
2013,08,15,06,42,18.00
2013,08,15,06,43,19.30
2013,08,15,06,44,21.00
2013,08,15,06,45,21.80
2013,08,15,06,46,24.10
2013,08,15,06,47,25.00
2013,08,15,06,48,25.70
2013,08,15,06,49,26.00
2013,08,15,06,50,27.80
2013,08,15,06,51,28.00
2013,08,15,06,52,28.50
2013,08,15,06,53,30.00
2013,08,15,06,54,30.80
2013,08,15,06,55,32.50
2013,08,15,06,56,34.30
2013,08,15,06,57,36.50
2013,08,15,06,58,38.70
2013,08,15,06,59,40.50
2013,08,15,07,00,51.80
2013,08,15,07,01,56.50
2013,08,15,07,02,61.60
2013,08,15,07,03,62.50
2013,08,15,07,04,51.60
2013,08,15,07,05,71.10
2013,08,15,07,06,85.50
2013,08,15,07,07,92.30
2013,08,15,07,08,70.20
2013,08,15,07,09,70.60
2013,08,15,07,10,65.60
2013,08,15,07,11,67.80
2013,08,15,07,12,71.80
2013,08,15,07,13,81.60
2013,08,15,07,14,79.70
2013,08,15,07,15,73.00
2013,08,15,07,16,74.10
2013,08,15,07,17,78.70
2013,08,15,07,18,75.00
2013,08,15,07,19,70.80
2013,08,15,07,20,74.00
2013,08,15,07,21,77.80
2013,08,15,07,22,71.40
2013,08,15,07,23,70.80
2013,08,15,07,24,64.30
2013,08,15,07,25,71.10
2013,08,15,07,26,66.40
2013,08,15,07,27,63.00
2013,08,15,07,28,64.60
2013,08,15,07,29,64.50
2013,08,15,07,30,62.60
2013,08,15,07,31,65.80
2013,08,15,07,32,63.00
2013,08,15,07,33,68.60
2013,08,15,07,34,70.20
2013,08,15,07,35,74.80
2013,08,15,07,36,83.00
2013,08,15,07,37,75.80
2013,08,15,07,38,63.30
2013,08,15,07,39,65.20
2013,08,15,07,40,67.00
2013,08,15,07,41,74.70
2013,08,15,07,42,65.70
2013,08,15,07,43,67.60
2013,08,15,07,44,71.10
2013,08,15,07,45,75.10
2013,08,15,07,46,79.00
2013,08,15,07,47,82.70
2013,08,15,07,48,86.80
2013,08,15,07,49,92.00
2013,08,15,07,50,97.50
2013,08,15,07,51,109.00
2013,08,15,07,52,108.20
2013,08,15,07,53,105.60
2013,08,15,07,54,111.40
2013,08,15,07,55,114.30
2013,08,15,07,56,111.00
2013,08,15,07,57,112.50
2013,08,15,07,58,113.80
2013,08,15,07,59,116.10
2013,08,15,08,00,120.50
2013,08,15,08,01,124.00
2013,08,15,08,02,128.10
2013,08,15,08,03,140.90
2013,08,15,08,04,151.60
2013,08,15,08,05,143.40
2013,08,15,08,06,150.50
2013,08,15,08,07,155.60
2013,08,15,08,08,153.40
2013,08,15,08,09,155.00
2013,08,15,08,10,151.10
2013,08,15,08,11,140.20
2013,08,15,08,12,136.00
2013,08,15,08,13,133.20
2013,08,15,08,14,135.50
2013,08,15,08,15,131.40
2013,08,15,08,16,130.00
2013,08,15,08,17,125.50
2013,08,15,08,18,129.50
2013,08,15,08,19,130.10
2013,08,15,08,20,137.10
2013,08,15,08,21,151.00
2013,08,15,08,22,161.30
2013,08,15,08,23,146.20
2013,08,15,08,24,133.40
2013,08,15,08,25,141.60
2013,08,15,08,26,142.90
2013,08,15,08,27,138.80
2013,08,15,08,28,145.80
2013,08,15,08,29,145.50
2013,08,15,08,30,140.20
2013,08,15,08,31,136.40
2013,08,15,08,32,135.00
2013,08,15,08,33,134.10
2013,08,15,08,34,126.80
2013,08,15,08,35,125.00
2013,08,15,08,36,131.90
2013,08,15,08,37,143.60
2013,08,15,08,38,157.50
2013,08,15,08,39,177.80
2013,08,15,08,40,165.70
2013,08,15,08,41,152.80
2013,08,15,08,42,148.80
2013,08,15,08,43,164.80
2013,08,15,08,44,194.10
2013,08,15,08,45,202.00
2013,08,15,08,46,193.40
2013,08,15,08,47,180.80
2013,08,15,08,48,179.00
2013,08,15,08,49,187.70
2013,08,15,08,50,201.90
2013,08,15,08,51,201.30
2013,08,15,08,52,188.00
2013,08,15,08,53,189.20
2013,08,15,08,54,198.00
2013,08,15,08,55,199.50
2013,08,15,08,56,190.80
2013,08,15,08,57,199.80
2013,08,15,08,58,243.20
2013,08,15,08,59,226.20
2013,08,15,09,00,278.00
2013,08,15,09,01,267.40
2013,08,15,09,02,212.80
2013,08,15,09,03,204.90
2013,08,15,09,04,226.30
2013,08,15,09,05,261.80
2013,08,15,09,06,296.80
2013,08,15,09,07,315.60
2013,08,15,09,08,278.00
2013,08,15,09,09,219.40
2013,08,15,09,10,209.60
2013,08,15,09,11,202.40
2013,08,15,09,12,196.00
2013,08,15,09,13,185.60
2013,08,15,09,14,204.50
2013,08,15,09,15,211.40
2013,08,15,09,16,219.10
2013,08,15,09,17,267.00
2013,08,15,09,18,283.60
2013,08,15,09,19,369.50
2013,08,15,09,20,403.80
2013,08,15,09,21,365.00
2013,08,15,09,22,343.00
2013,08,15,09,23,336.40
2013,08,15,09,24,334.00
2013,08,15,09,25,400.50
2013,08,15,09,26,410.10
2013,08,15,09,27,432.00
2013,08,15,09,28,457.80
2013,08,15,09,29,444.60
2013,08,15,09,30,413.80
2013,08,15,09,31,374.50
2013,08,15,09,32,364.00
2013,08,15,09,33,374.80
2013,08,15,09,34,385.30
2013,08,15,09,35,449.10
2013,08,15,09,36,381.40
2013,08,15,09,37,378.90
2013,08,15,09,38,361.00
2013,08,15,09,39,313.20
2013,08,15,09,40,276.00
2013,08,15,09,41,276.00
2013,08,15,09,42,353.40
2013,08,15,09,43,296.90
2013,08,15,09,44,278.20
2013,08,15,09,45,257.60
2013,08,15,09,46,257.00
2013,08,15,09,47,257.00
2013,08,15,09,48,247.90
2013,08,15,09,49,246.80
2013,08,15,09,50,250.70
2013,08,15,09,51,278.10
2013,08,15,09,52,333.40
2013,08,15,09,53,295.00
2013,08,15,09,54,295.00
2013,08,15,09,55,356.20
2013,08,15,09,56,431.00
2013,08,15,09,57,525.90
2013,08,15,09,58,577.00
2013,08,15,09,59,577.00
2013,08,15,10,00,577.00
2013,08,15,10,01,577.00
2013,08,15,10,02,577.00
2013,08,15,10,03,577.00
2013,08,15,10,04,577.00
2013,08,15,10,05,411.40
2013,08,15,10,06,299.60
2013,08,15,10,07,300.60
2013,08,15,10,08,301.00
2013,08,15,10,09,301.00
2013,08,15,10,10,296.80
2013,08,15,10,11,301.50
2013,08,15,10,12,300.30
2013,08,15,10,13,265.00
2013,08,15,10,14,265.00
2013,08,15,10,15,265.00
2013,08,15,10,16,272.60
2013,08,15,10,17,274.00
2013,08,15,10,18,287.60
2013,08,15,10,19,379.20
2013,08,15,10,20,397.50
2013,08,15,10,21,352.00
2013,08,15,10,22,416.20
2013,08,15,10,23,506.60
2013,08,15,10,24,527.00
2013,08,15,10,25,386.60
2013,08,15,10,26,403.40
2013,08,15,10,27,444.20
2013,08,15,10,28,356.90
2013,08,15,10,29,327.00
2013,08,15,10,30,351.20
2013,08,15,10,31,350.80
2013,08,15,10,32,344.00
2013,08,15,10,33,346.00
2013,08,15,10,34,322.70
2013,08,15,10,35,295.50
2013,08,15,10,36,302.80
2013,08,15,10,37,305.80
2013,08,15,10,38,337.80
2013,08,15,10,39,362.00
2013,08,15,10,40,362.00
2013,08,15,10,41,495.50
2013,08,15,10,42,607.50
2013,08,15,10,43,531.80
2013,08,15,10,44,476.00
2013,08,15,10,45,476.00
2013,08,15,10,46,483.20
2013,08,15,10,47,512.50
2013,08,15,10,48,531.00
2013,08,15,10,49,531.00
2013,08,15,10,50,396.70
2013,08,15,10,51,373.00
2013,08,15,10,52,373.10
2013,08,15,10,53,370.60
2013,08,15,10,54,384.00
2013,08,15,10,55,455.60
2013,08,15,10,56,531.20
2013,08,15,10,57,564.00
2013,08,15,10,58,431.20
2013,08,15,10,59,460.10
2013,08,15,11,00,379.20
2013,08,15,11,01,384.00
2013,08,15,11,02,349.40
2013,08,15,11,03,355.70
2013,08,15,11,04,369.00
2013,08,15,11,05,432.60
2013,08,15,11,06,475.00
2013,08,15,11,07,475.00
2013,08,15,11,08,485.80
2013,08,15,11,09,470.60
2013,08,15,11,10,321.80
2013,08,15,11,11,318.00
2013,08,15,11,12,315.80
2013,08,15,11,13,311.90
2013,08,15,11,14,309.70
2013,08,15,11,15,308.20
2013,08,15,11,16,308.00
2013,08,15,11,17,311.10
2013,08,15,11,18,315.10
2013,08,15,11,19,317.80
2013,08,15,11,20,324.50
2013,08,15,11,21,332.30
2013,08,15,11,22,347.40
2013,08,15,11,23,395.60
2013,08,15,11,24,474.60
2013,08,15,11,25,518.80
2013,08,15,11,26,444.30
2013,08,15,11,27,516.00
2013,08,15,11,28,504.00
2013,08,15,11,29,504.00
2013,08,15,11,30,447.00
2013,08,15,11,31,388.70
2013,08,15,11,32,442.80
2013,08,15,11,33,524.80
2013,08,15,11,34,537.90
2013,08,15,11,35,544.30
2013,08,15,11,36,555.80
2013,08,15,11,37,465.10
2013,08,15,11,38,432.00
2013,08,15,11,39,432.00
2013,08,15,11,40,526.90
2013,08,15,11,41,578.00
2013,08,15,11,42,515.10
2013,08,15,11,43,502.20
2013,08,15,11,44,568.90
2013,08,15,11,45,628.00
2013,08,15,11,46,628.00
2013,08,15,11,47,573.50
2013,08,15,11,48,465.00
2013,08,15,11,49,432.50
2013,08,15,11,50,461.20
2013,08,15,11,51,468.00
2013,08,15,11,52,673.00
2013,08,15,11,53,673.00
2013,08,15,11,54,665.00
2013,08,15,11,55,610.00
2013,08,15,11,56,518.50
2013,08,15,11,57,472.00
2013,08,15,11,58,419.80
2013,08,15,11,59,417.60
2013,08,15,12,00,415.20
2013,08,15,12,01,415.00
2013,08,15,12,02,422.80
2013,08,15,12,03,446.00
2013,08,15,12,04,441.50
2013,08,15,12,05,420.60
2013,08,15,12,06,409.30
2013,08,15,12,07,410.80
2013,08,15,12,08,411.00
2013,08,15,12,09,482.20
2013,08,15,12,10,484.80
2013,08,15,12,11,519.30
2013,08,15,12,12,461.00
2013,08,15,12,13,486.00
2013,08,15,12,14,526.00
2013,08,15,12,15,508.50
2013,08,15,12,16,481.00
2013,08,15,12,17,446.30
2013,08,15,12,18,421.40
2013,08,15,12,19,424.60
2013,08,15,12,20,443.00
2013,08,15,12,21,443.00
2013,08,15,12,22,464.50
2013,08,15,12,23,482.00
2013,08,15,12,24,616.20
2013,08,15,12,25,628.00
2013,08,15,12,26,612.60
2013,08,15,12,27,520.30
2013,08,15,12,28,587.00
2013,08,15,12,29,607.70
2013,08,15,12,30,583.50
2013,08,15,12,31,562.20
2013,08,15,12,32,520.70
2013,08,15,12,33,464.40
2013,08,15,12,34,402.70
2013,08,15,12,35,380.20
2013,08,15,12,36,373.20
2013,08,15,12,37,374.60
2013,08,15,12,38,374.80
2013,08,15,12,39,370.00
2013,08,15,12,40,362.60
2013,08,15,12,41,356.50
2013,08,15,12,42,350.80
2013,08,15,12,43,341.10
2013,08,15,12,44,334.00
2013,08,15,12,45,335.50
2013,08,15,12,46,340.60
2013,08,15,12,47,342.00
2013,08,15,12,48,339.80
2013,08,15,12,49,339.00
2013,08,15,12,50,340.60
2013,08,15,12,51,339.20
2013,08,15,12,52,333.60
2013,08,15,12,53,330.00
2013,08,15,12,54,330.00
2013,08,15,12,55,329.60
2013,08,15,12,56,328.00
2013,08,15,12,57,328.80
2013,08,15,12,58,336.30
2013,08,15,12,59,347.80
2013,08,15,13,00,350.50
2013,08,15,13,01,359.50
2013,08,15,13,02,362.00
2013,08,15,13,03,362.70
2013,08,15,13,04,364.90
2013,08,15,13,05,364.90
2013,08,15,13,06,364.00
2013,08,15,13,07,360.80
2013,08,15,13,08,365.10
2013,08,15,13,09,371.20
2013,08,15,13,10,380.00
2013,08,15,13,11,382.10
2013,08,15,13,12,387.00
2013,08,15,13,13,386.00
2013,08,15,13,14,382.70
2013,08,15,13,15,380.30
2013,08,15,13,16,378.40
2013,08,15,13,17,378.00
2013,08,15,13,18,381.20
2013,08,15,13,19,382.60
2013,08,15,13,20,379.50
2013,08,15,13,21,374.00
2013,08,15,13,22,368.80
2013,08,15,13,23,367.00
2013,08,15,13,24,371.50
2013,08,15,13,25,371.30
2013,08,15,13,26,366.20
2013,08,15,13,27,358.60
2013,08,15,13,28,353.00
2013,08,15,13,29,346.40
2013,08,15,13,30,328.50
2013,08,15,13,31,318.40
2013,08,15,13,32,313.70
2013,08,15,13,33,313.00
2013,08,15,13,34,321.10
2013,08,15,13,35,327.00
2013,08,15,13,36,329.20
2013,08,15,13,37,330.00
2013,08,15,13,38,330.00
2013,08,15,13,39,328.50
2013,08,15,13,40,324.00
2013,08,15,13,41,320.60
2013,08,15,13,42,318.40
2013,08,15,13,43,312.70
2013,08,15,13,44,299.90
2013,08,15,13,45,288.00
2013,08,15,13,46,277.50
2013,08,15,13,47,250.00
2013,08,15,13,48,228.60
2013,08,15,13,49,210.90
2013,08,15,13,50,195.50
2013,08,15,13,51,182.60
2013,08,15,13,52,179.80
2013,08,15,13,53,168.20
2013,08,15,13,54,163.70
2013,08,15,13,55,159.20
2013,08,15,13,56,157.00
2013,08,15,13,57,156.00
2013,08,15,13,58,155.30
2013,08,15,13,59,155.80
2013,08,15,14,00,159.60
2013,08,15,14,01,163.20
2013,08,15,14,02,165.00
2013,08,15,14,03,165.00
2013,08,15,14,04,165.00
2013,08,15,14,05,163.90
2013,08,15,14,06,162.40
2013,08,15,14,07,157.50
2013,08,15,14,08,151.80
2013,08,15,14,09,145.90
2013,08,15,14,10,138.20
2013,08,15,14,11,132.50
2013,08,15,14,12,125.30
2013,08,15,14,13,118.60
2013,08,15,14,14,114.30
2013,08,15,14,15,110.40
2013,08,15,14,16,107.40
2013,08,15,14,17,105.30
2013,08,15,14,18,104.00
2013,08,15,14,19,104.00
2013,08,15,14,20,104.30
2013,08,15,14,21,106.70
2013,08,15,14,22,111.50
2013,08,15,14,23,117.70
2013,08,15,14,24,122.20
2013,08,15,14,25,123.00
2013,08,15,14,26,126.60
2013,08,15,14,27,126.40
2013,08,15,14,28,122.50
2013,08,15,14,29,121.00
2013,08,15,14,30,121.00
2013,08,15,14,31,121.00
2013,08,15,14,32,122.30
2013,08,15,14,33,123.00
2013,08,15,14,34,121.30
2013,08,15,14,35,120.10
2013,08,15,14,36,120.00
2013,08,15,14,37,120.00
2013,08,15,14,38,120.00
2013,08,15,14,39,120.50
2013,08,15,14,40,122.10
2013,08,15,14,41,124.40
2013,08,15,14,42,126.50
2013,08,15,14,43,127.00
2013,08,15,14,44,125.00
2013,08,15,14,45,125.00
2013,08,15,14,46,125.00
2013,08,15,14,47,125.80
2013,08,15,14,48,127.00
2013,08,15,14,49,127.70
2013,08,15,14,50,128.00
2013,08,15,14,51,128.00
2013,08,15,14,52,130.10
2013,08,15,14,53,134.80
2013,08,15,14,54,141.20
2013,08,15,14,55,148.00
2013,08,15,14,56,162.00
2013,08,15,14,57,189.80
2013,08,15,14,58,217.20
2013,08,15,14,59,251.10
2013,08,15,15,00,286.90
2013,08,15,15,01,318.90
2013,08,15,15,02,322.40
2013,08,15,15,03,318.50
2013,08,15,15,04,315.00
2013,08,15,15,05,317.50
2013,08,15,15,06,324.30
2013,08,15,15,07,325.60
2013,08,15,15,08,317.00
2013,08,15,15,09,286.50
2013,08,15,15,10,262.00
2013,08,15,15,11,258.40
2013,08,15,15,12,245.50
2013,08,15,15,13,250.20
2013,08,15,15,14,254.10
2013,08,15,15,15,255.00
2013,08,15,15,16,256.50
2013,08,15,15,17,257.00
2013,08,15,15,18,257.10
2013,08,15,15,19,258.00
2013,08,15,15,20,259.20
2013,08,15,15,21,262.00
2013,08,15,15,22,263.00
2013,08,15,15,23,264.00
2013,08,15,15,24,264.00
2013,08,15,15,25,261.00
2013,08,15,15,26,253.70
2013,08,15,15,27,251.40
2013,08,15,15,28,256.70
2013,08,15,15,29,264.70
2013,08,15,15,30,273.10
2013,08,15,15,31,273.90
2013,08,15,15,32,267.20
2013,08,15,15,33,255.80
2013,08,15,15,34,249.00
2013,08,15,15,35,248.30
2013,08,15,15,36,251.60
2013,08,15,15,37,255.00
2013,08,15,15,38,254.20
2013,08,15,15,39,252.00
2013,08,15,15,40,248.00
2013,08,15,15,41,240.10
2013,08,15,15,42,234.70
2013,08,15,15,43,234.00
2013,08,15,15,44,236.20
2013,08,15,15,45,238.60
2013,08,15,15,46,234.60
2013,08,15,15,47,225.80
2013,08,15,15,48,219.50
2013,08,15,15,49,216.80
2013,08,15,15,50,217.50
2013,08,15,15,51,219.70
2013,08,15,15,52,216.10
2013,08,15,15,53,210.50
2013,08,15,15,54,206.00
2013,08,15,15,55,207.50
2013,08,15,15,56,211.00
2013,08,15,15,57,217.60
2013,08,15,15,58,225.60
2013,08,15,15,59,225.50
2013,08,15,16,00,223.30
2013,08,15,16,01,221.30
2013,08,15,16,02,223.00
2013,08,15,16,03,223.00
2013,08,15,16,04,223.00
2013,08,15,16,05,224.80
2013,08,15,16,06,227.00
2013,08,15,16,07,227.00
2013,08,15,16,08,227.00
2013,08,15,16,09,227.00
2013,08,15,16,10,227.00
2013,08,15,16,11,226.20
2013,08,15,16,12,220.30
2013,08,15,16,13,212.00
2013,08,15,16,14,207.40
2013,08,15,16,15,206.60
2013,08,15,16,16,209.80
2013,08,15,16,17,213.40
2013,08,15,16,18,215.80
2013,08,15,16,19,214.00
2013,08,15,16,20,212.20
2013,08,15,16,21,205.90
2013,08,15,16,22,204.00
2013,08,15,16,23,205.60
2013,08,15,16,24,208.30
2013,08,15,16,25,210.50
2013,08,15,16,26,211.00
2013,08,15,16,27,212.90
2013,08,15,16,28,213.20
2013,08,15,16,29,213.70
2013,08,15,16,30,211.40
2013,08,15,16,31,207.50
2013,08,15,16,32,201.60
2013,08,15,16,33,194.80
2013,08,15,16,34,187.30
2013,08,15,16,35,181.30
2013,08,15,16,36,175.00
2013,08,15,16,37,167.60
2013,08,15,16,38,160.60
2013,08,15,16,39,157.10
2013,08,15,16,40,156.00
2013,08,15,16,41,157.30
2013,08,15,16,42,158.00
2013,08,15,16,43,155.40
2013,08,15,16,44,153.10
2013,08,15,16,45,153.40
2013,08,15,16,46,155.20
2013,08,15,16,47,156.80
2013,08,15,16,48,158.00
2013,08,15,16,49,158.00
2013,08,15,16,50,159.40
2013,08,15,16,51,164.00
2013,08,15,16,52,171.30
2013,08,15,16,53,178.80
2013,08,15,16,54,183.00
2013,08,15,16,55,182.40
2013,08,15,16,56,178.90
2013,08,15,16,57,173.40
2013,08,15,16,58,168.50
2013,08,15,16,59,163.50
2013,08,15,17,00,158.60
2013,08,15,17,01,155.10
2013,08,15,17,02,152.40
2013,08,15,17,03,148.10
2013,08,15,17,04,144.60
2013,08,15,17,05,140.60
2013,08,15,17,06,136.80
2013,08,15,17,07,134.30
2013,08,15,17,08,130.80
2013,08,15,17,09,127.30
2013,08,15,17,10,122.80
2013,08,15,17,11,120.80